Alexandria Esle, LA

3:22 AM CDT on May 23, 2018 (GMT -0500)
Alexandria Esler Regional

Weather History for KESF - April, 2013

Change the Weather History Date:

Sunday, April 14, 2013

  Actual Average Record
Temperature  
Mean Temperature 67 °F -  
Max Temperature 78 °F 76 °F 88 °F (1972)
Min Temperature 57 °F 57 °F 36 °F (2004)
Cooling Degree Days 2    
Growing Degree Days 17 (Base 50)    
Moisture  
Dew Point 59 °F    
Average Humidity 83    
Maximum Humidity 94    
Minimum Humidity 56    
Precipitation  
Precipitation 0.15 in - - ()
Sea Level Pressure  
Sea Level Pressure 29.78 in    
Wind  
Wind Speed 5 mph (SSE)    
Max Wind Speed 15 mph    
Max Gust Speed 29 mph    
Visibility 8 miles    
Events Rain , Thunderstorm    
Averages and records for this station are not official NWS values.
T = Trace of Precipitation, MM = Missing Value Source: NWS Daily Summary

Daily Weather History Graph

Daily Weather History Graph

Search for Another Location

Airport or City:

Astronomy

Apr. 14, 2013 Rise Set
Actual Time 6:41 AM CDT 7:37 PM CDT
Civil Twilight 6:16 AM CDT 8:02 PM CDT
Nautical Twilight 5:47 AM CDT 8:31 PM CDT
Astronomical Twilight 5:17 AM CDT 9:02 PM CDT
Moon 9:30 AM CDT (4/14) 11:39 PM CDT (4/14)
Length of Visible Light 13h 45m
Length of Day
12h 55m
Waxing Crescent, 17% of the Moon is Illuminated
Apr 14
Waxing Crescent
Apr 18
First Quarter
Apr 25
Full
May 2
Last Quarter
May 9
New

Hourly Weather History & Observations

Time (CDT) Temp. Dew Point Humidity Pressure Visibility Wind Dir Wind Speed Gust Speed Precip Events Conditions
12:53 AM 59.0 °F 52.0 °F 78% 29.81 in 10.0 mi ENE 5.8 mph - N/A   Clear
1:53 AM 63.0 °F 51.1 °F 65% 29.83 in 10.0 mi East 3.5 mph - N/A   Mostly Cloudy
2:39 AM 62.6 °F 51.8 °F 68% 29.79 in 10.0 mi SE 10.4 mph - 0.00 in Rain , Thunderstorm Light Rain
2:53 AM 61.0 °F 53.1 °F 75% 29.82 in 10.0 mi Variable 6.9 mph - 0.02 in Rain , Thunderstorm Light Thunderstorms and Rain
3:28 AM 57.2 °F 55.4 °F 94% 29.73 in 7.0 mi East 15.0 mph 27.6 mph 0.10 in Rain Rain
3:36 AM 57.2 °F 55.4 °F 94% 29.75 in 8.0 mi ESE 10.4 mph 28.8 mph 0.11 in Rain , Thunderstorm Rain
3:49 AM 59.0 °F 55.4 °F 88% 29.73 in 10.0 mi Variable 5.8 mph - 0.12 in Rain Light Rain
3:53 AM 59.0 °F 55.0 °F 87% 29.70 in 10.0 mi East 13.8 mph 19.6 mph 0.12 in Rain Light Rain
4:29 AM 59.0 °F 55.4 °F 88% 29.75 in 10.0 mi SE 12.7 mph 20.7 mph 0.01 in   Overcast
4:53 AM 57.9 °F 55.0 °F 90% 29.73 in 10.0 mi East 8.1 mph 17.3 mph 0.01 in   Overcast
5:53 AM 57.9 °F 55.9 °F 93% 29.76 in 10.0 mi Calm Calm - N/A   Overcast
6:53 AM 59.0 °F 55.9 °F 90% 29.78 in 10.0 mi Calm Calm - 0.00 in Rain Light Rain
7:53 AM 59.0 °F 57.0 °F 93% 29.78 in 10.0 mi NNE 3.5 mph - 0.00 in   Overcast
8:21 AM 60.8 °F 57.2 °F 88% 29.80 in 10.0 mi Calm Calm - N/A   Overcast
8:35 AM 60.8 °F 57.2 °F 88% 29.81 in 10.0 mi Calm Calm - N/A   Overcast
8:53 AM 60.1 °F 57.0 °F 90% 29.81 in 10.0 mi Calm Calm - N/A   Overcast
9:20 AM 60.8 °F 57.2 °F 88% 29.81 in 10.0 mi Calm Calm - N/A   Overcast
9:33 AM 62.6 °F 57.2 °F 82% 29.82 in 10.0 mi Calm Calm - N/A   Overcast
9:51 AM 62.6 °F 59.0 °F 88% 29.82 in 10.0 mi Calm Calm - N/A   Overcast
9:53 AM 62.1 °F 59.0 °F 90% 29.82 in 10.0 mi Calm Calm - N/A   Overcast
10:20 AM 62.6 °F 59.0 °F 88% 29.81 in 8.0 mi Calm Calm - 0.00 in Rain Light Rain
10:53 AM 66.0 °F 61.0 °F 84% 29.81 in 10.0 mi ESE 5.8 mph - 0.00 in   Overcast
11:09 AM 66.2 °F 60.8 °F 83% 29.82 in 10.0 mi South 6.9 mph - N/A   Overcast
11:53 AM 66.0 °F 61.0 °F 84% 29.82 in 10.0 mi South 3.5 mph - N/A   Overcast
12:49 PM 69.8 °F 62.6 °F 78% 29.80 in 10.0 mi Variable 3.5 mph - N/A   Overcast
12:53 PM 70.0 °F 62.1 °F 76% 29.80 in 10.0 mi SW 5.8 mph - N/A   Overcast
1:53 PM 72.0 °F 62.1 °F 71% 29.78 in 10.0 mi South 8.1 mph - N/A   Overcast
2:43 PM 75.2 °F 62.6 °F 65% 29.76 in 10.0 mi SW 6.9 mph - N/A   Mostly Cloudy
2:53 PM 75.9 °F 63.0 °F 64% 29.75 in 10.0 mi SW 9.2 mph - N/A   Mostly Cloudy
3:05 PM 75.2 °F 62.6 °F 65% 29.74 in 10.0 mi SSW 9.2 mph 16.1 mph N/A   Mostly Cloudy
3:22 PM 75.2 °F 62.6 °F 65% 29.74 in 10.0 mi WSW 5.8 mph - N/A   Mostly Cloudy
3:53 PM 77.0 °F 63.0 °F 62% 29.73 in 10.0 mi SW 9.2 mph - N/A   Scattered Clouds
4:53 PM 77.0 °F 60.1 °F 56% 29.71 in 10.0 mi South 6.9 mph - N/A   Scattered Clouds
5:53 PM 77.0 °F 60.1 °F 56% 29.71 in 10.0 mi South 8.1 mph - N/A   Clear
6:53 PM 75.0 °F 61.0 °F 62% 29.72 in 10.0 mi SSE 4.6 mph - N/A   Clear
7:53 PM 66.9 °F 61.0 °F 81% 29.73 in 10.0 mi SE 4.6 mph - N/A   Clear
8:53 PM 64.0 °F 61.0 °F 90% 29.75 in 10.0 mi Calm Calm - N/A   Clear
9:53 PM 63.0 °F 61.0 °F 93% 29.77 in 7.0 mi Calm Calm - N/A   Clear
10:16 PM 62.6 °F 60.8 °F 94% 29.78 in 1.8 mi Calm Calm - N/A   Clear
10:26 PM 62.6 °F 60.8 °F 94% 29.78 in 3.0 mi Calm Calm - N/A   Clear
10:39 PM 60.8 °F 59.0 °F 94% 29.78 in 1.8 mi Calm Calm - N/A   Clear
10:50 PM 60.8 °F 59.0 °F 94% 29.78 in 0.8 mi Calm Calm - N/A   Clear
10:53 PM 61.0 °F 59.0 °F 93% 29.78 in 0.8 mi Calm Calm - N/A   Clear
10:59 PM 60.8 °F 59.0 °F 94% 29.78 in 1.0 mi Calm Calm - N/A   Mist
11:14 PM 60.8 °F 59.0 °F 94% 29.78 in 0.8 mi Calm Calm - N/A   Mist
11:25 PM 60.8 °F 59.0 °F 94% 29.78 in 1.0 mi Calm Calm - N/A   Partly Cloudy
11:37 PM 60.8 °F 59.0 °F 94% 29.79 in 2.0 mi Calm Calm - N/A   Mostly Cloudy
11:44 PM 60.8 °F 59.0 °F 94% 29.79 in 7.0 mi Calm Calm - N/A   Mostly Cloudy
11:53 PM 60.1 °F 57.9 °F 93% 29.79 in 6.0 mi Calm Calm - N/A   Scattered Clouds